Regional Weather Roundup
Issued by NWS Goodland, KS

Current Version | Previous Version | Text Only | Print | Product List | Glossary On
Versions: 1 2 3 4 5 6 7 8 9 10 11 12 13 14 15 16 17 18 19 20 21 22 23 24 25 26 27 28 29 30 31 32 33 34 35 36 37 38 39 40 41 42 43 44 45 46 47 48 49 50
000
ASUS43 KGLD 210808
RWRGLD

GOODLAND FORECAST AREA HOURLY WEATHER ROUNDUP
NATIONAL WEATHER SERVICE GOODLAND KS
100 AM MST SAT JAN 21 2017

...OFFICIAL OBSERVATIONS...

CITY           SKY/WX    TMP DP  RH WIND       PRES   REMARKS
GOODLAND KS    CLEAR     28  26  92 W5        29.43F
HILL CITY KS   CLEAR     35  33  92 W10       29.44S
IMPERIAL NEB   CLEAR     32  30  92 W9        29.42S
MCCOOK NEB     CLEAR     32  31  96 SW7       29.42F
AKRON CO       CLEAR     27  19  72 W6        29.42F
BURLINGTON CO  CLEAR     28  25  88 SW7       29.44F
LIMON CO       FOG       19  19 100 N3        29.43F VSB 1/4
$$

...UNOFFICIAL OBSERVATIONS...

CITY           SKY/WX    TMP DP  RH WIND       PRES   REMARKS
LENORA KS        N/A     34  32  92 W7          N/A
NORTON KS      CLEAR     36  30  80 W12       29.42S
SHARON SPRINGS   N/A     29  28  95 SW5         N/A
TRENTON NEB      N/A     33  32  96 W6          N/A
KIT CARSON CO    N/A     23  21  91 CALM        N/A
YUMA CO        FAIR      21  18  86 SW9       29.42F
$$



USA.gov is the U.S. government's official web portal to all federal, state and local government web resources and services.